Location: Brede
(50.9167°N, 0.6000°E)
Time: 11:35:52
(UTC+00:00)

Vanguard 1 Rocket - All Passes

Search period start: 30 November 2020 00:00
Search period end: 10 December 2020 00:00
Orbit: 656 x 4221 km, 34.3° (Epoch: 30 November)

Date Brightness Start Highest point End Pass type
(mag) Time Alt. Az. Time Alt. Az. Time Alt. Az.
30 Nov - 01:42:07 10° SW 02:05:20 45° S 02:21:37 10° ESE visible
30 Nov - 04:12:44 10° WSW 04:33:38 43° SSW 04:46:11 10° SE visible
30 Nov - 06:46:14 10° W 06:59:00 24° SW 07:07:22 10° S visible
30 Nov - 22:07:33 10° S 22:23:41 22° SE 22:39:11 10° E visible
01 Dec - 00:29:09 10° SW 00:51:47 41° SSE 01:09:42 10° E visible
01 Dec - 02:57:51 10° WSW 03:20:50 47° S 03:35:37 10° ESE visible
01 Dec - 05:30:14 10° W 05:47:48 34° SSW 05:58:34 10° SSE visible
01 Dec - 08:08:56 10° WSW 08:11:17 11° WSW 08:13:27 10° SW daylight
01 Dec - 21:02:05 10° SSE 21:11:26 13° SE 21:20:52 10° ESE visible
01 Dec - 23:17:27 10° SSW 23:38:17 34° SSE 23:56:54 10° E visible
02 Dec - 01:43:41 10° WSW 02:07:26 47° S 02:24:24 10° ESE visible
02 Dec - 04:14:42 10° W 04:35:48 42° SSW 04:48:48 10° SE visible
02 Dec - 06:48:58 10° W 07:00:53 21° SW 07:09:08 10° S visible
02 Dec - 22:07:19 10° S 22:25:13 26° SE 22:42:50 10° E visible
03 Dec - 00:30:30 10° SW 00:53:43 44° SSE 01:12:31 10° E visible
03 Dec - 02:59:43 10° WSW 03:22:59 48° S 03:38:17 10° ESE visible
03 Dec - 05:32:28 10° W 05:49:47 31° SW 06:00:47 10° SSE visible
03 Dec - 20:59:37 10° SSE 21:12:46 18° SE 21:26:29 10° E visible
03 Dec - 23:18:28 10° SSW 23:40:01 39° SSE 23:59:49 10° E visible
04 Dec - 01:45:27 10° WSW 02:09:30 49° S 02:27:07 10° ESE visible
04 Dec - 04:16:46 10° W 04:37:50 40° SSW 04:51:15 10° SE visible
04 Dec - 06:52:04 10° W 07:02:37 18° SW 07:10:24 10° SSW visible
04 Dec - 22:07:48 10° SSW 22:26:44 31° SE 22:46:02 10° E visible
05 Dec - 00:32:06 10° SW 00:55:39 47° SSE 01:15:14 10° ESE visible
05 Dec - 03:01:42 10° WSW 03:25:03 47° SSW 03:40:51 10° SE visible
05 Dec - 05:34:52 10° W 05:51:36 28° SW 06:02:45 10° S visible
05 Dec - 20:58:56 10° S 21:14:06 22° SE 21:30:35 10° E visible
05 Dec - 23:19:51 10° SW 23:41:46 43° SSE 00:02:34 10° E visible
06 Dec - 01:47:22 10° WSW 02:11:32 50° S 02:29:43 10° ESE visible
06 Dec - 04:18:55 10° W 04:39:46 38° SSW 04:53:30 10° SSE visible
06 Dec - 06:55:51 10° W 07:04:12 14° WSW 07:10:52 10° SSW visible
06 Dec - 19:53:52 10° SE 20:02:14 13° ESE 20:11:16 10° E visible
06 Dec - 22:08:47 10° SSW 22:28:17 35° SE 22:48:56 10° E visible
07 Dec - 00:33:55 10° WSW 00:57:35 50° S 01:17:50 10° ESE visible
07 Dec - 03:03:47 10° W 03:27:01 45° SSW 03:43:16 10° SE visible
07 Dec - 05:37:29 10° W 05:53:17 25° SW 06:04:23 10° S visible
07 Dec - 20:59:12 10° S 21:15:28 27° SE 21:33:57 10° E visible
07 Dec - 23:21:30 10° SW 23:43:33 46° SSE 00:05:11 10° E visible
08 Dec - 01:49:24 10° WSW 02:13:31 50° S 02:32:13 10° ESE visible
08 Dec - 04:21:12 10° W 04:41:33 35° SW 04:55:33 10° SSE visible
08 Dec - 07:01:30 10° WSW 07:05:39 11° WSW 07:09:22 10° SW visible
08 Dec - 19:51:58 10° SSE 20:03:27 17° SE 20:16:38 10° E visible
08 Dec - 22:10:10 10° SSW 22:29:53 39° SSE 22:51:37 10° E visible
09 Dec - 00:35:55 10° WSW 00:59:30 51° S 01:20:22 10° ESE visible
09 Dec - 03:05:57 10° W 03:28:54 43° SSW 03:45:32 10° SE visible
09 Dec - 05:40:26 10° W 05:54:49 21° SW 06:05:34 10° S visible
09 Dec - 21:00:06 10° SSW 21:16:53 31° SE 21:36:55 10° E visible
